{"data":{"norad_id":61604,"epoch":"2026-05-25T02:01:59.611872Z","epoch_age_seconds":57967,"freshness":"FRESH","line1":"1 61604U 24188L   26145.08471773 -.00000448  00000+0 -12997-2 0  9992","line2":"2 61604  87.8908  25.6782 0001135  41.1992 318.9221 13.11417442 81446","mean_motion":13.11417442,"eccentricity":0.0001135,"inclination_deg":87.8908,"raan_deg":25.6782,"arg_perigee_deg":41.1992,"mean_anomaly_deg":318.9221,"bstar":-0.0012997,"rev_number":8144,"period_min":109.80485342668,"perigee_km":1216.8186539503,"apogee_km":1218.5429045862,"semimajor_km":7595.8177792682,"source":"CELESTRAK","updated_at":"2026-05-25T13:38:22.750058Z"}}